Weather History for GMMZ - May, 2013

Change the Weather History Date:

Tuesday, May 21, 2013

  Actual Average Record
Temperature  
Mean Temperature 63 °F -  
Max Temperature 75 °F 91 °F - ()
Min Temperature 51 °F 62 °F - ()
Degree Days  
Heating Degree Days 2    
Growing Degree Days 13 (Base 50)    
Moisture  
Dew Point 20 °F    
Average Humidity 21    
Maximum Humidity 44    
Minimum Humidity 4    
Precipitation  
Precipitation 0.00 in 0.00 in - ()
Sea Level Pressure  
Sea Level Pressure 29.93 in    
Wind  
Wind Speed 16 mph ()    
Max Wind Speed 26 mph    
Max Gust Speed 37 mph    
Visibility 7.1 miles    
Events      
T = Trace of Precipitation, MM = Missing Value Source: Averaged Metar Reports

Daily Weather History Graph

Daily Weather History Graph

Search for Another Location

Airport or City:

Trip Planner

Search our weather history database for the weather conditions in past years. The results will help you decide how hot, cold, wet, or windy it might be!

Date:

Astronomy

May. 21, 2013 Rise Set
Actual Time 6:28 AM WEST 8:19 PM WEST
Civil Twilight 6:02 AM WEST 8:46 PM WEST
Nautical Twilight 5:29 AM WEST 9:19 PM WEST
Astronomical Twilight 4:55 AM WEST 9:53 PM WEST
Moon 4:32 PM WEST (5/21) 3:32 AM WEST (5/21)
Length of Visible Light 14h 44m
Length of Day
13h 50m
Waxing Gibbous, 82% of the Moon is Illuminated
May 21
Waxing Gibbous
May 25
Full
May 31
Last Quarter
Jun 8
New
Jun 16
First Quarter

Hourly Weather History & Observations

Time (WEST) Temp. Dew Point Humidity Pressure Visibility Wind Dir Wind Speed Gust Speed Precip Events Conditions
12:00 AM 57.2 °F 32.0 °F 38% 29.92 in 5.0 mi WNW 25.3 mph 36.8 mph N/A   Partly Cloudy
1:00 AM 56 °F 29 °F 24%  in 5 mi WNW 26.5 mph - -   Scattered Clouds
1:00 AM 55.4 °F 30.2 °F 38% 29.92 in 5.0 mi WNW 26.5 mph - N/A   Partly Cloudy
2:00 AM 55.4 °F 32.0 °F 41% 29.92 in 5.0 mi WNW 24.2 mph - N/A   Partly Cloudy
3:00 AM 53.6 °F 28.4 °F 38% 29.92 in 5.0 mi WNW 25.3 mph - N/A   Partly Cloudy
4:00 AM 54 °F 30 °F 27%  in 5 mi WNW 25.3 mph - -   Scattered Clouds
4:00 AM 53.6 °F 30.2 °F 41% 29.92 in 5.0 mi WNW 19.6 mph - N/A   Partly Cloudy
5:00 AM 51.8 °F 30.2 °F 44% 29.92 in 5.0 mi WNW 19.6 mph - N/A   Partly Cloudy
6:00 AM 51.8 °F 28.4 °F 41% 29.95 in - West 17.3 mph - N/A   Clear
7:00 AM 52 °F 27 °F 25%  in 6 mi West 21.9 mph - -  
7:00 AM 51.8 °F 26.6 °F 38% 29.95 in - West 21.9 mph - N/A   Clear
8:00 AM 53.6 °F 24.8 °F 33% 29.92 in - WNW 23.0 mph - N/A   Clear
9:00 AM 57.2 °F 23.0 °F 27% 29.92 in - Variable 5.8 mph - N/A   Clear
10:00 AM 60 °F 19 °F 10%  in 12 mi West 10.4 mph - -  
10:00 AM 60.8 °F 19.4 °F 20% 29.95 in - West 10.4 mph - N/A   Clear
11:00 AM 64.4 °F 15.8 °F 15% 29.95 in - West 10.4 mph - N/A   Unknown
12:00 PM 66.2 °F 14.0 °F 13% 29.95 in - NW 9.2 mph - N/A   Clear
1:00 PM 69 °F 14 °F 5%  in 12 mi NW 6.9 mph - -  
1:00 PM 68.0 °F 14.0 °F 12% 29.95 in - Variable 6.9 mph - N/A   Clear
2:00 PM 71.6 °F 12.2 °F 10% 29.92 in - North 8.1 mph - N/A   Clear
4:00 PM 74 °F 9 °F 4%  in 9 mi WNW 10.4 mph - -  
4:00 PM 75.2 °F 8.6 °F 8% 29.92 in - WNW 10.4 mph - N/A   Clear
5:00 PM 73.4 °F 12.2 °F 10% 29.92 in - NNW 15.0 mph - N/A   Clear
6:00 PM 73.4 °F 14.0 °F 10% 29.89 in - NW 13.8 mph - N/A   Clear
7:00 PM 72 °F 15 °F 5%  in 9 mi NW 13.8 mph - -  
7:00 PM 71.6 °F 14.0 °F 11% 29.92 in - NW 12.7 mph 25.3 mph N/A   Clear
8:00 PM 68.0 °F 17.6 °F 15% 29.92 in - NNW 16.1 mph - N/A   Clear
9:00 PM 64.4 °F 17.6 °F 16% 29.95 in - WNW 9.2 mph - N/A   Clear
10:00 PM 63 °F 15 °F 7%  in 12 mi NW 9.2 mph - -  
10:00 PM 62.6 °F 14.0 °F 15% 29.98 in - NW 9.2 mph - N/A   Clear
11:00 PM 60.8 °F 14.0 °F 16% 29.98 in - West 6.9 mph - N/A   Clear